DW6455 Orivesi FI current weather conditions

sailwx.info

Wind from 166 at 6 knots gusting 16

Air temperature 1.7° C
Dewpoint -3.6° C

Last reported at 2014-Oct-24 20:47 UTC.
Time now 2014-Oct-24 21:21 UTC

Location: N 61°39' E 024°21'.
View on Google Maps.

See reports from other nearby stations

  
Tides and Currents Weather Stations Pressure Air Temp Water Temp Dewpoint Dewpoint Depression Visibility Wind Speed Wind Dir Waves Ship Positions
date/time (UTC)wind fromknots sea level pressurealtimeterstation pressurevisibilityair tempwater tempwave heightnotes
2014-Oct-24 20:47 166 6 gusting 16 1.7
2014-Oct-24 20:42 171 6 gusting 16 1.7
2014-Oct-24 20:37 172 6 gusting 20 1.7
2014-Oct-24 20:32 201 6 gusting 20 1.7
2014-Oct-24 20:27 194 6 gusting 20 1.7
2014-Oct-24 20:22 218 7 gusting 19 1.7
2014-Oct-24 20:17 219 7 gusting 19 1.7
2014-Oct-24 20:12 180 7 gusting 19 1.7
2014-Oct-24 20:07 180 7 gusting 17 1.7
2014-Oct-24 20:02 146 7 gusting 17 1.7
2014-Oct-24 19:57 209 7 gusting 17 1.7
2014-Oct-24 19:52 179 7 gusting 16 1.7
2014-Oct-24 19:47 190 7 gusting 16 1.7
2014-Oct-24 19:42 141 6 gusting 16 1.7
2014-Oct-24 19:37 190 6 gusting 19 1.7
2014-Oct-24 19:32 171 6 gusting 19 1.7
2014-Oct-24 19:27 181 6 gusting 19 1.7
2014-Oct-24 19:22 179 7 gusting 21 1.7
2014-Oct-24 19:17 219 6 gusting 21 1.7
2014-Oct-24 19:12 190 7 gusting 21 1.7
2014-Oct-24 19:07 198 6 gusting 22 1.7
2014-Oct-24 19:02 182 6 gusting 22 1.7
2014-Oct-24 18:57 126 7 gusting 22 1.7
2014-Oct-24 18:52 205 6 gusting 19 1.7
2014-Oct-24 18:47 188 7 gusting 19 1.7
2014-Oct-24 18:42 170 7 gusting 19 1.7
2014-Oct-24 18:37 183 7 gusting 19 1.7
2014-Oct-24 18:32 194 6 gusting 19 1.7
2014-Oct-24 18:27 233 6 gusting 19 1.7
2014-Oct-24 18:22 164 6 gusting 23 1.7
2014-Oct-24 18:17 200 7 gusting 23 1.7
2014-Oct-24 18:12 185 6 gusting 23 1.7
2014-Oct-24 18:07 215 7 gusting 19 1.7
2014-Oct-24 18:02 232 8 gusting 19 1.7
2014-Oct-24 17:57 186 8 gusting 19 1.7
2014-Oct-24 17:52 182 8 gusting 19 1.7
2014-Oct-24 17:47 189 7 gusting 19 1.7
2014-Oct-24 17:42 151 7 gusting 19 1.7
2014-Oct-24 17:37 173 7 gusting 20 1.7
2014-Oct-24 17:32 198 6 gusting 20 1.7
2014-Oct-24 17:27 198 6 gusting 20 1.7
2014-Oct-24 17:22 200 7 gusting 21 1.7
2014-Oct-24 17:17 155 7 gusting 21 1.7
2014-Oct-24 17:12 194 6 gusting 21 1.7
2014-Oct-24 17:07 198 8 gusting 19 1.7
2014-Oct-24 17:02 196 8 gusting 19 1.7
2014-Oct-24 16:57 180 7 gusting 19 1.7
2014-Oct-24 16:52 144 7 gusting 18 1.7
2014-Oct-24 16:47 190 6 gusting 18 1.7
2014-Oct-24 16:42 162 7 gusting 18 1.7
2014-Oct-24 16:37 165 6 gusting 21 1.7
2014-Oct-24 16:32 139 5 gusting 21 1.7
2014-Oct-24 16:27 215 6 gusting 21 1.7
2014-Oct-24 16:22 147 6 gusting 21 1.7
2014-Oct-24 16:17 230 6 gusting 17 1.1
2014-Oct-24 16:12 195 6 gusting 17 1.1
2014-Oct-24 16:07 156 7 gusting 17 1.1
2014-Oct-24 16:02 159 6 gusting 17 1.1
2014-Oct-24 15:57 163 6 gusting 19 1.1
2014-Oct-24 15:52 179 6 gusting 19 1.1
2014-Oct-24 15:47 196 6 gusting 19 1.1
2014-Oct-24 15:42 157 6 gusting 19 1.1
2014-Oct-24 15:37 220 5 gusting 17 1.1
2014-Oct-24 15:32 154 6 gusting 17 1.1
2014-Oct-24 15:27 169 7 gusting 17 1.1
2014-Oct-24 15:22 159 6 gusting 17 1.1
2014-Oct-24 15:17 181 7 gusting 17 1.1
2014-Oct-24 15:12 165 6 gusting 17 1.1
2014-Oct-24 15:07 193 6 gusting 19 1.1
2014-Oct-24 15:02 188 6 gusting 19 1.1
2014-Oct-24 14:57 161 5 gusting 19 1.1
2014-Oct-24 14:52 155 6 gusting 19 1.1
2014-Oct-24 14:47 123 6 gusting 19 1.1
2014-Oct-24 14:17 142 8 gusting 19 1.1
2014-Oct-24 14:12 204 9 gusting 19 1.1
2014-Oct-24 14:07 171 7 gusting 21 1.1
2014-Oct-24 14:02 190 7 gusting 21 1.1
2014-Oct-24 13:57 186 6 gusting 21 1.1
2014-Oct-24 13:52 160 7 gusting 21 1.7
2014-Oct-24 13:47 196 7 gusting 21 1.7
2014-Oct-24 13:42 159 7 gusting 17 1.7
2014-Oct-24 13:37 184 7 gusting 17 1.7
2014-Oct-24 13:32 217 7 gusting 17 1.7
2014-Oct-24 13:27 200 7 gusting 19 1.7
2014-Oct-24 13:22 207 8 gusting 19 1.7
2014-Oct-24 13:17 124 7 gusting 19 1.7
2014-Oct-24 13:12 186 7 gusting 19 1.7
2014-Oct-24 13:07 173 8 gusting 20 1.7
2014-Oct-24 13:02 205 7 gusting 20 1.7
2014-Oct-24 12:57 211 6 gusting 20 1.7
2014-Oct-24 12:52 174 6 gusting 20 1.7
2014-Oct-24 12:42 169 7 gusting 18 1.1
2014-Oct-24 12:37 150 7 gusting 18 1.1
2014-Oct-24 12:32 190 6 gusting 18 1.7
2014-Oct-24 12:27 155 6 gusting 18 1.7
2014-Oct-24 12:22 179 6 gusting 16 1.1
2014-Oct-24 12:17 152 6 gusting 16 1.1
2014-Oct-24 12:12 185 7 gusting 18 1.1
2014-Oct-24 12:07 132 7 gusting 18 1.1
2014-Oct-24 12:02 205 7 gusting 16 1.1
2014-Oct-24 11:57 188 7 gusting 16 1.1
2014-Oct-24 11:52 159 6 gusting 16 1.1
2014-Oct-24 11:47 199 6 gusting 16 1.1
2014-Oct-24 11:42 197 6 gusting 14 1.1
2014-Oct-24 11:37 191 6 gusting 14 1.1
2014-Oct-24 11:32 200 6 gusting 19 1.1
2014-Oct-24 11:27 165 6 gusting 19 1.1
2014-Oct-24 11:22 171 6 gusting 20 1.1
2014-Oct-24 11:17 150 6 gusting 20 1.1
2014-Oct-24 11:12 209 6 gusting 20 1.1
2014-Oct-24 11:07 188 7 gusting 20 1.1
2014-Oct-24 11:02 211 6 gusting 18 1.1
2014-Oct-24 10:57 128 6 gusting 18 1.1
2014-Oct-24 10:52 216 7 gusting 19 0.6
2014-Oct-24 10:47 209 7 gusting 19 0.6
2014-Oct-24 10:42 212 7 gusting 19 0.6
2014-Oct-24 10:37 167 6 gusting 19 0.6
2014-Oct-24 10:32 188 7 gusting 19 0.6
2014-Oct-24 10:27 180 6 gusting 19 0.6
2014-Oct-24 10:22 204 6 gusting 14 0.6
2014-Oct-24 10:17 135 6 gusting 17 0.6
2014-Oct-24 10:12 158 6 gusting 17 0.6
2014-Oct-24 10:07 189 7 gusting 19 0.6
2014-Oct-24 10:02 190 7 gusting 19 0.6
2014-Oct-24 09:57 205 8 gusting 19 0.6
2014-Oct-24 09:52 180 7 gusting 20 0.6
2014-Oct-24 09:47 200 7 gusting 20 0.6
2014-Oct-24 09:42 126 7 gusting 20 -0.0
2014-Oct-24 09:37 149 6 gusting 19 -0.0
2014-Oct-24 09:32 261 6 gusting 19 -0.0
2014-Oct-24 09:27 153 6 gusting 19 -0.0
2014-Oct-24 09:22 187 7 gusting 20 -0.0
2014-Oct-24 09:17 219 6 gusting 20 -0.0
2014-Oct-24 09:12 151 6 gusting 17 -0.0
2014-Oct-24 09:07 177 6 gusting 17 -0.0
2014-Oct-24 09:02 158 7 gusting 16 -0.6
2014-Oct-24 08:57 213 7 gusting 16 -0.6
2014-Oct-24 08:52 143 7 gusting 18 -0.6
2014-Oct-24 08:47 197 6 gusting 18 -0.6
2014-Oct-24 08:42 134 6 gusting 21 -0.6
2014-Oct-24 08:37 142 6 gusting 21 -0.6
2014-Oct-24 08:32 184 9 gusting 20 -0.6
2014-Oct-24 08:27 146 8 gusting 20 -0.6
2014-Oct-24 08:22 162 7 gusting 19 -0.6
2014-Oct-24 08:17 191 8 gusting 19 -0.6
2014-Oct-24 08:12 162 8 gusting 17 -0.6
2014-Oct-24 08:07 184 7 gusting 17 -0.6
2014-Oct-24 08:02 212 6 gusting 18 -0.6
2014-Oct-24 07:57 196 7 gusting 18 -1.1
2014-Oct-24 07:52 177 7 gusting 19 -1.1
2014-Oct-24 07:47 165 7 gusting 19 -1.1
2014-Oct-24 07:42 179 7 gusting 19 -1.1
2014-Oct-24 07:37 196 6 gusting 19 -1.1
2014-Oct-24 07:32 211 6 gusting 19 -1.1
2014-Oct-24 07:27 192 6 gusting 20 -1.1
2014-Oct-24 07:22 186 7 gusting 20 -1.1
2014-Oct-24 07:17 119 6 gusting 20 -1.1
2014-Oct-24 07:12 191 7 gusting 16 -1.7
2014-Oct-24 07:07 127 7 gusting 16 -1.7
2014-Oct-24 07:02 182 6 gusting 16 -1.7
2014-Oct-24 06:57 144 6 gusting 14 -1.7
2014-Oct-24 06:52 183 6 gusting 14 -1.7
2014-Oct-24 06:47 182 6 gusting 14 -1.7
2014-Oct-24 06:42 171 6 gusting 16 -1.7
2014-Oct-24 06:37 180 6 gusting 16 -1.7
2014-Oct-24 06:32 178 6 gusting 16 -1.7
2014-Oct-24 06:27 166 6 gusting 20 -1.7
2014-Oct-24 06:22 190 6 gusting 20 -1.7
2014-Oct-24 06:17 150 8 gusting 20 -1.7
2014-Oct-24 06:12 192 7 gusting 18 -1.7
2014-Oct-24 06:07 138 7 gusting 18 -1.7
2014-Oct-24 06:02 147 7 gusting 18 -1.7
2014-Oct-24 05:57 126 7 gusting 18 -1.7
2014-Oct-24 05:52 178 6 gusting 18 -1.7
2014-Oct-24 05:47 136 6 gusting 18 -1.7
2014-Oct-24 05:42 161 7 gusting 18 -1.7
2014-Oct-24 05:37 175 7 gusting 18 -1.7
2014-Oct-24 05:32 169 8 gusting 18 -1.7
2014-Oct-24 05:27 192 8 gusting 16 -1.7
2014-Oct-24 05:22 108 7 gusting 16 -2.2
2014-Oct-24 05:17 188 7 gusting 16 -1.7
2014-Oct-24 05:12 161 7 gusting 19 -2.2
2014-Oct-24 05:07 137 7 gusting 19 -2.2
2014-Oct-24 05:02 157 7 gusting 19 -2.2
2014-Oct-24 04:57 153 6 gusting 19 -2.2
2014-Oct-24 04:52 144 6 gusting 19 -2.2
2014-Oct-24 04:47 170 7 gusting 19 -2.2
2014-Oct-24 04:42 134 6 gusting 19 -2.2
2014-Oct-24 04:37 137 6 gusting 19 -2.2
2014-Oct-24 04:32 162 6 gusting 19 -2.2
2014-Oct-24 04:27 126 6 gusting 17 -2.2
2014-Oct-24 04:22 103 6 gusting 17 -2.2
2014-Oct-24 04:17 157 6 gusting 17 -2.2
2014-Oct-24 04:12 157 7 gusting 17 -2.2
2014-Oct-24 04:07 175 7 gusting 19 -2.2
2014-Oct-24 04:02 171 6 gusting 19 -2.2
2014-Oct-24 03:57 183 7 gusting 19 -2.2
2014-Oct-24 03:52 198 7 gusting 25 -2.2
2014-Oct-24 03:47 171 7 gusting 25 -2.2
2014-Oct-24 03:42 150 8 gusting 25 -1.7
2014-Oct-24 03:37 161 8 gusting 25 -1.7
2014-Oct-24 03:32 131 8 gusting 19 -2.2
2014-Oct-24 03:27 191 8 gusting 19 -2.2
2014-Oct-24 03:22 177 8 gusting 19 -2.2
2014-Oct-24 03:17 204 8 gusting 17 -2.2
2014-Oct-24 03:12 173 6 gusting 17 -2.2
2014-Oct-24 03:07 173 6 gusting 17 -2.2
2014-Oct-24 03:02 160 7 gusting 17 -2.2
2014-Oct-24 02:57 181 7 gusting 21 -2.2
2014-Oct-24 02:52 143 6 gusting 21 -1.7
2014-Oct-24 02:47 196 7 gusting 18 -1.7
2014-Oct-24 02:42 153 6 gusting 18 -1.7
2014-Oct-24 02:37 148 6 gusting 18 -1.7
2014-Oct-24 02:32 170 6 gusting 16 -1.7
2014-Oct-24 02:27 134 6 gusting 16 -1.7
2014-Oct-24 02:22 216 7 gusting 16 -1.7
2014-Oct-24 02:17 162 6 gusting 19 -1.7
2014-Oct-24 02:12 205 6 gusting 19 -1.7
2014-Oct-24 02:07 147 7 gusting 17 -1.7
2014-Oct-24 02:02 139 7 gusting 17 -1.7
2014-Oct-24 01:57 177 6 gusting 17 -1.7
2014-Oct-24 01:52 198 6 gusting 15 -1.7
2014-Oct-24 01:47 205 6 gusting 15 -2.2
2014-Oct-24 01:42 188 5 gusting 18 -2.2
2014-Oct-24 01:37 146 6 gusting 18 -1.7
2014-Oct-24 01:32 197 7 gusting 18 -1.7
2014-Oct-24 01:27 150 6 gusting 18 -1.7
2014-Oct-24 01:22 199 6 gusting 22 -1.7
2014-Oct-24 01:17 143 6 gusting 22 -1.7
2014-Oct-24 01:12 157 6 gusting 22 -1.7
2014-Oct-24 01:07 157 7 gusting 22 -1.7
2014-Oct-24 01:02 198 6 gusting 19 -1.7
2014-Oct-24 00:57 162 6 gusting 19 -1.7
2014-Oct-24 00:52 169 7 gusting 17 -1.7
2014-Oct-24 00:47 170 7 gusting 17 -1.7
2014-Oct-24 00:42 144 6 gusting 20 -1.7
2014-Oct-24 00:37 157 7 gusting 20 -1.7
2014-Oct-24 00:32 195 8 gusting 24 -1.7
2014-Oct-24 00:27 211 8 gusting 24 -1.7
2014-Oct-24 00:22 160 8 gusting 19 -1.7
2014-Oct-24 00:17 186 7 gusting 19 -1.7
2014-Oct-24 00:12 166 7 gusting 19 -1.7
2014-Oct-24 00:07 158 7 gusting 19 -1.7
2014-Oct-24 00:02 196 6 gusting 26 -1.7
2014-Oct-23 23:57 121 7 gusting 26 -1.7
2014-Oct-23 23:52 152 7 gusting 22 -1.7
2014-Oct-23 23:47 164 7 gusting 22 -1.7
2014-Oct-23 23:42 155 7 gusting 20 -1.7
2014-Oct-23 23:37 153 8 gusting 20 -1.7
2014-Oct-23 23:32 211 8 gusting 22 -1.7
2014-Oct-23 23:27 172 7 gusting 22 -1.7
2014-Oct-23 23:22 208 7 gusting 22 -1.7
2014-Oct-23 23:17 147 8 gusting 22 -1.7
2014-Oct-23 23:12 229 8 gusting 19 -1.7
2014-Oct-23 23:07 172 8 gusting 19 -1.7
2014-Oct-23 23:02 170 8 gusting 23 -1.7
2014-Oct-23 22:57 142 7 gusting 23 -1.7
2014-Oct-23 22:52 141 7 gusting 23 -1.7
2014-Oct-23 22:47 188 7 gusting 23 -1.7
2014-Oct-23 22:42 129 8 gusting 21 -1.7
2014-Oct-23 22:37 150 8 gusting 21 -1.7
2014-Oct-23 22:32 124 8 gusting 22 -1.7
2014-Oct-23 22:27 180 7 gusting 22 -1.7
2014-Oct-23 22:22 192 7 gusting 22 -1.7
2014-Oct-23 22:17 152 7 gusting 22 -1.7
2014-Oct-23 22:12 213 6 gusting 20 -1.7
2014-Oct-23 22:07 177 7 gusting 18 -2.2
2014-Oct-23 22:02 181 7 gusting 18 -2.2
2014-Oct-23 21:57 175 7 gusting 18 -2.2
2014-Oct-23 21:52 251 7 gusting 18 -2.2
2014-Oct-23 21:47 198 6 gusting 18 -2.2
2014-Oct-23 21:42 156 6 gusting 18 -2.2
2014-Oct-23 21:37 184 6 gusting 17 -2.2
2014-Oct-23 21:32 120 6 gusting 17 -2.2
2014-Oct-23 21:27 188 6 gusting 17 -2.2
2014-Oct-23 21:22 157 6 gusting 18 -2.2
2014-Oct-23 21:17 179 7 gusting 18 -2.2
2014-Oct-23 21:12 191 7 gusting 15 -2.2
2014-Oct-23 21:07 176 6 gusting 15 -2.2
2014-Oct-23 21:02 188 6 gusting 19 -2.2
2014-Oct-23 20:57 158 6 gusting 19 -2.2
2014-Oct-23 20:52 165 8 gusting 19 -2.2
2014-Oct-23 20:47 180 8 gusting 19 -2.2
2014-Oct-23 20:42 195 7 gusting 16 -2.2
2014-Oct-23 20:37 186 6 gusting 16 -2.2
2014-Oct-23 20:32 188 7 gusting 16 -2.2
2014-Oct-23 20:27 171 7 gusting 16 -2.2
2014-Oct-23 20:22 204 7 gusting 16 -2.2
2014-Oct-23 20:17 128 6 gusting 16 -2.2
2014-Oct-23 20:12 136 6 gusting 16 -2.2
2014-Oct-23 20:07 161 6 gusting 16 -2.2
2014-Oct-23 20:02 113 6 gusting 15 -2.2
2014-Oct-23 19:57 156 6 gusting 15 -2.2
2014-Oct-23 19:52 171 6 gusting 17 -2.2
2014-Oct-23 19:47 205 6 gusting 17 -2.2
2014-Oct-23 19:42 138 6 gusting 22 -2.2
2014-Oct-23 19:37 182 8 gusting 22 -2.2
2014-Oct-23 19:32 177 9 gusting 22 -2.2
2014-Oct-23 19:27 175 10 gusting 22 -2.2
2014-Oct-23 19:22 146 9 gusting 16 -2.2
2014-Oct-23 19:17 138 9 gusting 16 -2.2
2014-Oct-23 19:12 146 8 gusting 16 -2.2
2014-Oct-23 19:07 124 7 gusting 16 -2.2
2014-Oct-23 19:02 175 7 gusting 17 -2.2
2014-Oct-23 18:57 155 6 gusting 17 -2.2
2014-Oct-23 18:52 217 6 gusting 18 -2.2
2014-Oct-23 18:47 121 7 gusting 18 -2.2
2014-Oct-23 18:27 174 6 gusting 15 -2.2
2014-Oct-23 18:22 130 6 gusting 13 -2.2
2014-Oct-23 18:17 174 5 gusting 13 -2.2
2014-Oct-23 18:12 176 6 gusting 15 -2.2
2014-Oct-23 18:07 151 6 gusting 15 -2.2
2014-Oct-23 18:02 157 6 gusting 17 -2.2
2014-Oct-23 17:57 150 6 gusting 17 -2.2
2014-Oct-23 17:52 155 7 gusting 14 -2.2
2014-Oct-23 17:47 174 6 gusting 14 -2.2
2014-Oct-23 17:42 125 7 gusting 14 -2.2
2014-Oct-23 17:37 148 7 gusting 14 -2.2
2014-Oct-23 17:32 135 6 gusting 13 -2.2
2014-Oct-23 17:27 126 6 gusting 13 -2.2
2014-Oct-23 17:22 146 6 gusting 13 -2.2
2014-Oct-23 17:17 142 6 gusting 13 -2.2
2014-Oct-23 17:12 140 6 gusting 16 -2.2
2014-Oct-23 17:07 132 5 gusting 16 -2.2
2014-Oct-23 17:02 132 6 gusting 14 -2.2
2014-Oct-23 16:57 143 7 gusting 14 -1.7
2014-Oct-23 16:52 152 6 gusting 13 -1.7
2014-Oct-23 16:47 148 6 gusting 13 -1.7
2014-Oct-23 16:42 117 6 gusting 18 -1.7
2014-Oct-23 16:37 169 7 gusting 18 -1.7
2014-Oct-23 16:32 175 8 gusting 19 -1.7
2014-Oct-23 16:27 138 9 gusting 19 -1.7
2014-Oct-23 16:22 134 9 gusting 19 -1.7
2014-Oct-23 16:17 213 7 gusting 19 -1.7
2014-Oct-23 16:12 134 7 gusting 19 -1.1
2014-Oct-23 16:07 116 9 gusting 22 -1.1
2014-Oct-23 16:02 147 9 gusting 22 -1.1
2014-Oct-23 15:57 165 10 gusting 22 -1.1
2014-Oct-23 15:52 140 11 gusting 20 -1.1
2014-Oct-23 15:47 216 11 gusting 20 -1.1
2014-Oct-23 15:42 155 9 gusting 20 -1.1
2014-Oct-23 15:37 167 9 gusting 19 -1.1
2014-Oct-23 15:32 155 9 gusting 19 -1.1
2014-Oct-23 15:27 151 9 gusting 19 -1.1
2014-Oct-23 15:22 146 8 gusting 18 -1.1
2014-Oct-23 15:17 146 8 gusting 18 -1.1
2014-Oct-23 15:12 132 8 gusting 16 -1.1
2014-Oct-23 15:07 173 9 gusting 16 -1.1
2014-Oct-23 15:02 169 8 gusting 16 -1.1
2014-Oct-23 14:57 136 7 gusting 16 -1.1
2014-Oct-23 14:52 167 7 gusting 16 -1.1
2014-Oct-23 14:47 139 7 gusting 16 -1.1
2014-Oct-23 14:42 117 6 gusting 16 -1.1
2014-Oct-23 14:37 126 7 gusting 16 -1.1
2014-Oct-23 14:32 146 8 gusting 14 -1.1
2014-Oct-23 14:27 145 8 gusting 14 -1.1
2014-Oct-23 14:22 166 7 gusting 14 -1.1
2014-Oct-23 14:17 159 7 gusting 14 -1.1
2014-Oct-23 14:12 146 6 gusting 13 -1.1
2014-Oct-23 14:07 137 6 gusting 13 -1.1
2014-Oct-23 14:02 133 6 gusting 13 -1.1
2014-Oct-23 13:57 144 6 gusting 13 -1.1
2014-Oct-23 13:52 136 6 gusting 17 -1.1
2014-Oct-23 13:47 146 8 gusting 17 -1.1
2014-Oct-23 13:42 158 8 gusting 13 -1.1
2014-Oct-23 13:37 129 7 gusting 13 -1.1
2014-Oct-23 13:32 134 7 gusting 16 -1.1
2014-Oct-23 13:27 148 7 gusting 16 -1.1
2014-Oct-23 13:22 163 7 gusting 16 -1.1
2014-Oct-23 13:17 100 7 gusting 14 -1.1
2014-Oct-23 13:12 128 7 gusting 14 -1.1
2014-Oct-23 13:07 128 7 gusting 14 -1.1
2014-Oct-23 13:02 124 7 gusting 14 -1.1
2014-Oct-23 12:57 129 6 gusting 14 -1.1
2014-Oct-23 12:52 134 6 gusting 12 -1.1
2014-Oct-23 12:47 138 5 gusting 12 -1.7
2014-Oct-23 12:42 147 6 gusting 13 -1.7
2014-Oct-23 12:37 108 6 gusting 13 -1.7
2014-Oct-23 12:32 142 6 gusting 13 -1.7
2014-Oct-23 12:27 167 7 gusting 13 -1.7
2014-Oct-23 12:22 140 6 gusting 14 -1.7
2014-Oct-23 12:17 161 6 gusting 14 -1.7
2014-Oct-23 12:12 133 7 gusting 13 -1.7
2014-Oct-23 12:07 121 6 gusting 13 -1.7
2014-Oct-23 12:02 142 6 gusting 14 -1.7
2014-Oct-23 11:57 127 6 gusting 15 -1.7
2014-Oct-23 11:52 175 6 gusting 15 -1.7
2014-Oct-23 11:47 105 7 gusting 15 -1.7
2014-Oct-23 11:42 136 8 gusting 13 -1.7
2014-Oct-23 11:37 138 6 gusting 13 -1.7
2014-Oct-23 11:32 134 6 gusting 13 -1.7
2014-Oct-23 11:27 123 6 gusting 13 -1.7
2014-Oct-23 11:22 142 6 gusting 16 -1.7
2014-Oct-23 11:17 163 7 gusting 16 -1.7
2014-Oct-23 11:12 175 7 gusting 14 -1.7
2014-Oct-23 11:07 161 6 gusting 14 -1.7
2014-Oct-23 11:02 144 7 gusting 12 -1.7
2014-Oct-23 10:57 146 6 gusting 12 -1.7
2014-Oct-23 10:52 113 5 gusting 12 -1.7
2014-Oct-23 10:47 127 6 gusting 12 -1.7
2014-Oct-23 10:42 117 6 gusting 12 -2.2
2014-Oct-23 10:37 201 6 gusting 12 -2.2
2014-Oct-23 10:32 140 6 gusting 13 -2.2
2014-Oct-23 10:27 144 6 gusting 13 -2.2
2014-Oct-23 10:22 103 7 gusting 13 -2.2
2014-Oct-23 10:17 140 7 gusting 13 -2.2
2014-Oct-23 10:12 133 6 gusting 13 -2.2
2014-Oct-23 10:07 133 6 gusting 13 -2.2
2014-Oct-23 10:02 137 6 gusting 13 -2.2
2014-Oct-23 09:57 124 6 gusting 13 -2.2
2014-Oct-23 09:52 188 6 gusting 13 -2.8
2014-Oct-23 09:47 161 6 gusting 13 -2.8
2014-Oct-23 09:42 153 6 gusting 13 -2.8
2014-Oct-23 09:37 136 6 gusting 13 -2.8
2014-Oct-23 09:32 161 6 gusting 13 -2.8
2014-Oct-23 09:27 118 7 gusting 13 -2.8
2014-Oct-23 09:22 171 7 gusting 13 -2.8
2014-Oct-23 09:17 161 6 gusting 13 -2.8
2014-Oct-23 09:12 113 6 gusting 13 -2.8
2014-Oct-23 09:07 128 6 gusting 13 -3.3
2014-Oct-23 09:02 130 7 gusting 13 -3.3
2014-Oct-23 08:57 151 8 gusting 13 -3.3
2014-Oct-23 08:52 113 8 gusting 13 -3.3
2014-Oct-23 08:47 105 7 gusting 13 -3.3
2014-Oct-23 08:42 134 7 gusting 12 -3.3
2014-Oct-23 08:37 150 6 gusting 12 -3.3
2014-Oct-23 08:32 142 6 gusting 10 -3.3
2014-Oct-23 08:27 166 5 gusting 10 -3.3
2014-Oct-23 08:22 134 5 gusting 9 -3.3
2014-Oct-23 08:17 115 5 gusting 12 -3.3
2014-Oct-23 08:12 161 5 gusting 12 -3.9
2014-Oct-23 08:07 118 6 gusting 12 -3.9
2014-Oct-23 08:02 140 6 gusting 11 -3.9
2014-Oct-23 07:57 142 5 gusting 11 -3.9
2014-Oct-23 07:52 144 4 gusting 9 -3.9
2014-Oct-23 07:47 140 4 gusting 9 -3.9
2014-Oct-23 07:42 119 5 gusting 10 -3.9
2014-Oct-23 07:37 120 6 gusting 10 -3.9
2014-Oct-23 07:32 116 5 gusting 10 -4.4
2014-Oct-23 07:27 135 4 gusting 10 -4.4
2014-Oct-23 07:22 145 5 gusting 10 -4.4
2014-Oct-23 07:17 110 6 gusting 10 -4.4
2014-Oct-23 07:12 098 6 gusting 12 -4.4
2014-Oct-23 07:07 151 5 gusting 12 -4.4
2014-Oct-23 07:02 139 6 gusting 12 -4.4
2014-Oct-23 06:57 156 5 gusting 11 -5.0
2014-Oct-23 06:52 147 5 gusting 11 -5.0
2014-Oct-23 06:47 115 5 gusting 11 -5.0
2014-Oct-23 06:42 123 6 gusting 11 -5.0
2014-Oct-23 06:37 112 5 gusting 11 -5.6
2014-Oct-23 06:32 106 3 gusting 12 -5.6
2014-Oct-23 06:27 119 4 gusting 12 -5.6
2014-Oct-23 06:22 129 6 gusting 12 -5.6
2014-Oct-23 06:17 121 5 gusting 12 -5.6
2014-Oct-23 06:12 122 5 gusting 12 -5.6
2014-Oct-23 06:07 143 6 gusting 10 -5.6
2014-Oct-23 06:02 141 6 gusting 10 -5.6
2014-Oct-23 05:57 121 5 gusting 10 -5.6
2014-Oct-23 05:52 142 5 gusting 10 -5.6
2014-Oct-23 05:47 169 4 gusting 10 -5.6
2014-Oct-23 05:42 122 4 gusting 10 -6.1
2014-Oct-23 05:37 129 4 gusting 10 -6.1
2014-Oct-23 05:32 113 3 gusting 8 -6.1
2014-Oct-23 05:27 142 3 gusting 8 -6.1
2014-Oct-23 05:22 119 3 gusting 6 -6.1
2014-Oct-23 05:17 136 2 gusting 6 -6.1
2014-Oct-23 05:12 123 3 gusting 11 -6.1
2014-Oct-23 05:07 136 3 gusting 11 -6.1
2014-Oct-23 05:02 120 3 gusting 11 -6.1
2014-Oct-23 04:57 141 4 gusting 11 -5.6
2014-Oct-23 04:52 134 5 gusting 11 -5.6
2014-Oct-23 04:47 123 6 gusting 8 -5.6
2014-Oct-23 04:42 127 5 gusting 8 -5.6
2014-Oct-23 04:37 107 4 gusting 8 -5.6
2014-Oct-23 04:32 111 3 gusting 6 -6.1
2014-Oct-23 04:27 129 3 gusting 6 -6.1
2014-Oct-23 04:22 142 3 gusting 6 -6.1
2014-Oct-23 04:17 121 3 gusting 6 -6.1
2014-Oct-23 04:12 163 2 gusting 6 -5.6
2014-Oct-23 04:07 121 2 gusting 6 -5.6
2014-Oct-23 04:02 165 2 gusting 6 -5.6
2014-Oct-23 03:57 140 2 gusting 11 -5.6
2014-Oct-23 03:52 131 2 gusting 11 -5.6
2014-Oct-23 03:47 129 4 gusting 11 -5.6
2014-Oct-23 03:42 109 6 gusting 11 -5.6
2014-Oct-23 03:37 136 5 gusting 11 -5.6
2014-Oct-23 03:32 123 6 gusting 11 -5.6
2014-Oct-23 03:27 116 6 gusting 11 -5.6
2014-Oct-23 03:22 110 5 gusting 6 -5.6
2014-Oct-23 03:17 126 4 gusting 6 -5.6
2014-Oct-23 03:12 113 2 gusting 6 -5.6
2014-Oct-23 03:07 125 2 gusting 11 -5.6
2014-Oct-23 03:02 127 3 gusting 11 -5.6
2014-Oct-23 02:57 107 4 gusting 11 -5.0
2014-Oct-23 02:52 138 5 gusting 11 -5.0
2014-Oct-23 02:47 126 5 gusting 11 -5.0
2014-Oct-23 02:42 117 4 gusting 12 -5.0
2014-Oct-23 02:37 139 5 gusting 12 -5.0
2014-Oct-23 02:32 111 6 gusting 12 -5.0
2014-Oct-23 02:27 113 6 gusting 12 -5.0
2014-Oct-23 02:22 153 6 gusting 12 -5.0
2014-Oct-23 02:17 140 5 gusting 10 -5.0
2014-Oct-23 02:12 124 4 gusting 10 -4.4
2014-Oct-23 02:07 129 4 gusting 10 -4.4
2014-Oct-23 02:02 092 5 gusting 10 -4.4
2014-Oct-23 01:57 110 5 gusting 10 -4.4
2014-Oct-23 01:52 128 5 gusting 7 -4.4
2014-Oct-23 01:47 123 4 gusting 7 -4.4
2014-Oct-23 01:42 121 3 gusting 9 -4.4
2014-Oct-23 01:37 093 4 gusting 9 -4.4
2014-Oct-23 01:32 100 5 gusting 7 -4.4
2014-Oct-23 01:27 103 5 gusting 7 -4.4
2014-Oct-23 01:22 119 4 gusting 7 -4.4
2014-Oct-23 01:17 122 3 gusting 6 -4.4
2014-Oct-23 01:12 115 3 gusting 6 -3.9
2014-Oct-23 01:07 117 4 gusting 6 -3.9
2014-Oct-23 01:02 120 4 gusting 7 -3.9
2014-Oct-23 00:57 100 3 gusting 7 -3.9
2014-Oct-23 00:52 101 4 gusting 9 -3.9
2014-Oct-23 00:47 130 5 gusting 9 -3.9
2014-Oct-23 00:42 123 5 gusting 9 -3.9
2014-Oct-23 00:37 092 5 gusting 9 -3.9
2014-Oct-23 00:32 110 5 gusting 9 -3.9
2014-Oct-23 00:27 105 4 gusting 9 -3.9
2014-Oct-23 00:22 119 5 gusting 9 -3.9
2014-Oct-23 00:17 131 4 gusting 8 -3.9
2014-Oct-23 00:12 135 3 gusting 11 -3.9
2014-Oct-23 00:07 145 4 gusting 11 -3.9
2014-Oct-23 00:02 127 4 gusting 11 -3.9
2014-Oct-22 23:57 096 5 gusting 11 -3.9
2014-Oct-22 23:52 138 4 gusting 6 -3.9
2014-Oct-22 23:47 134 3 gusting 6 -3.9
2014-Oct-22 23:42 122 3 gusting 6 -3.9
2014-Oct-22 23:37 113 3 gusting 6 -4.4
2014-Oct-22 23:32 121 3 gusting 9 -4.4
2014-Oct-22 23:27 094 3 gusting 9 -4.4
2014-Oct-22 23:22 107 4 gusting 9 -4.4
2014-Oct-22 23:17 113 4 gusting 9 -4.4
2014-Oct-22 23:12 138 3 gusting 6 -4.4
2014-Oct-22 23:07 121 3 gusting 6 -5.0
2014-Oct-22 23:02 125 2 gusting 8 -5.0
2014-Oct-22 22:57 113 2 gusting 8 -5.0
2014-Oct-22 22:52 109 3 gusting 6 -5.0
2014-Oct-22 22:47 134 2 gusting 6 -5.0
2014-Oct-22 22:42 126 2 gusting 6 -5.0
2014-Oct-22 22:37 124 2 gusting 6 -5.0
2014-Oct-22 22:32 119 2 gusting 6 -5.0
2014-Oct-22 22:27 128 2 gusting 6 -5.0
2014-Oct-22 22:22 117 2 gusting 6 -5.0
2014-Oct-22 22:17 115 2 gusting 6 -5.0
2014-Oct-22 22:12 134 3 gusting 6 -5.0
2014-Oct-22 22:07 144 3 gusting 6 -5.0
2014-Oct-22 22:02 105 3 gusting 6 -5.6
2014-Oct-22 21:57 129 3 gusting 6 -5.6
2014-Oct-22 21:52 109 3 gusting 6 -5.6
2014-Oct-22 21:47 129 2 gusting 6 -5.6
2014-Oct-22 21:42 142 2 gusting 6 -6.1
2014-Oct-22 21:37 107 1 gusting 6 -6.1
2014-Oct-22 21:32 107 0 gusting 2 -6.1
2014-Oct-22 21:27 114 0 gusting 2 -6.1
2014-Oct-22 21:22 119 0 gusting 4 -6.1
2014-Oct-22 21:17 117 0 gusting 4 -6.1
2014-Oct-22 21:12 077 0 gusting 4 -6.1
2014-Oct-22 21:07 076 1 gusting 4 -6.1
2014-Oct-22 21:02 076 2 gusting 5 -6.1